Rockwall, TX

7:27 AM CST on February 24, 2017 (GMT -0600)
Rockwall

Weather History for KF46 - October, 2012

Change the Weather History Date:

Saturday, October 13, 2012

  Actual Average (KDFW) Record (KDFW)
Temperature  
Mean Temperature 75 °F -  
Max Temperature 82 °F 76 °F 97 °F (1910)
Min Temperature 69 °F 56 °F 38 °F (1977)
Cooling Degree Days 10    
Growing Degree Days 25 (Base 50)    
Moisture  
Dew Point 69 °F    
Average Humidity 80    
Maximum Humidity 92    
Minimum Humidity 63    
Precipitation  
Precipitation 0.00 in - - ()
Sea Level Pressure  
Sea Level Pressure 29.96 in    
Wind  
Wind Speed 13 mph ()    
Max Wind Speed 24 mph    
Max Gust Speed 37 mph    
Visibility 10.0 miles    
Events Rain , Thunderstorm    
Averages and records for this station are not official NWS values.
T = Trace of Precipitation, MM = Missing Value Source: Averaged Metar Reports

Daily Weather History Graph

Daily Weather History Graph

Search for Another Location

Airport or City:

Trip Planner

Search our weather history database for the weather conditions in past years. The results will help you decide how hot, cold, wet, or windy it might be!

Date:

Astronomy

Oct. 13, 2012 Rise Set
Actual Time 7:28 AM CDT 6:54 PM CDT
Civil Twilight 7:04 AM CDT 7:19 PM CDT
Nautical Twilight 6:35 AM CDT 7:47 PM CDT
Astronomical Twilight 6:06 AM CDT 8:16 PM CDT
Moon 5:24 AM CDT (10/13) 5:35 PM CDT (10/13)
Length of Visible Light 12h 15m
Length of Day
11h 25m
Waning Crescent, 5% of the Moon is Illuminated
Oct 13
Waning Crescent
Oct 15
New
Oct 21
First Quarter
Oct 29
Full
Nov 6
Last Quarter

Hourly Weather History & Observations

Time (CDT) Temp. Heat Index Dew Point Humidity Pressure Visibility Wind Dir Wind Speed Gust Speed Precip Events Conditions
12:35 AM 71.6 °F - 66.6 °F 84% 30.08 in 10.0 mi SSE 9.2 mph - N/A   Clear
12:55 AM 72.0 °F - 66.2 °F 82% 30.07 in 10.0 mi South 9.2 mph - N/A   Clear
1:15 AM 72.3 °F - 66.2 °F 81% 30.06 in 10.0 mi South 12.7 mph 18.4 mph N/A   Clear
1:35 AM 72.5 °F - 66.2 °F 81% 30.06 in 10.0 mi South 11.5 mph 19.6 mph N/A   Clear
1:55 AM 71.8 °F - 66.2 °F 83% 30.05 in 10.0 mi South 11.5 mph 21.9 mph N/A   Clear
2:15 AM 71.2 °F - 66.4 °F 85% 30.05 in 10.0 mi South 9.2 mph 17.3 mph N/A   Clear
2:35 AM 71.1 °F - 66.6 °F 86% 30.04 in 10.0 mi South 12.7 mph 19.6 mph N/A   Clear
3:35 AM 70.3 °F - 66.9 °F 89% 30.05 in 10.0 mi South 8.1 mph - N/A   Clear
4:15 AM 69.8 °F - 67.1 °F 91% 30.04 in 10.0 mi South 5.8 mph - N/A   Scattered Clouds
4:35 AM 70.2 °F - 67.5 °F 91% 30.03 in 10.0 mi South 10.4 mph - N/A   Mostly Cloudy
4:55 AM 70.3 °F - 67.8 °F 92% 30.04 in 10.0 mi South 8.1 mph 16.1 mph N/A   Overcast
5:15 AM 70.3 °F - 68.0 °F 92% 30.04 in 10.0 mi South 10.4 mph - N/A   Overcast
5:35 AM 70.5 °F - 68.0 °F 92% 30.04 in 10.0 mi South 10.4 mph - N/A   Overcast
5:55 AM 70.9 °F - 68.4 °F 92% 30.04 in 10.0 mi South 12.7 mph 17.3 mph N/A   Overcast
6:15 AM 71.1 °F - 68.4 °F 91% 30.04 in 10.0 mi South 10.4 mph 16.1 mph N/A   Overcast
6:35 AM 71.4 °F - 68.4 °F 90% 30.04 in 10.0 mi SSW 15.0 mph 21.9 mph N/A   Overcast
7:15 AM 71.1 °F - 68.4 °F 91% 30.04 in 10.0 mi South 11.5 mph 16.1 mph N/A   Overcast
7:35 AM 71.1 °F - 68.5 °F 92% 30.04 in 10.0 mi South 10.4 mph 17.3 mph N/A   Overcast
7:55 AM 71.2 °F - 68.7 °F 92% 30.05 in 10.0 mi SSW 10.4 mph - N/A   Overcast
8:35 AM 71.8 °F - 68.9 °F 91% 30.06 in 10.0 mi SSW 10.4 mph 16.1 mph N/A   Overcast
9:15 AM 72.7 °F - 69.3 °F 89% 30.07 in 10.0 mi SSW 11.5 mph 17.3 mph N/A   Overcast
9:55 AM 74.5 °F - 69.6 °F 85% 30.06 in 10.0 mi South 13.8 mph 17.3 mph N/A   Overcast
10:15 AM 75.6 °F - 69.8 °F 82% 30.06 in 10.0 mi South 18.4 mph 25.3 mph N/A   Overcast
10:35 AM 75.6 °F - 69.6 °F 82% 30.05 in 10.0 mi South 18.4 mph 23.0 mph N/A   Overcast
11:15 AM 77.5 °F - 70.0 °F 77% 30.03 in 10.0 mi South 16.1 mph 26.5 mph N/A   Overcast
11:35 AM 78.6 °F - 69.6 °F 74% 30.02 in 10.0 mi South 21.9 mph 29.9 mph N/A   Mostly Cloudy
12:35 PM 81.0 °F 84.1 °F 68.9 °F 67% 29.98 in 10.0 mi South 21.9 mph 27.6 mph N/A   Scattered Clouds
1:15 PM 80.6 °F 83.2 °F 68.0 °F 65% 29.97 in 10.0 mi South 21.9 mph 33.4 mph N/A   Overcast
1:35 PM 80.8 °F 83.5 °F 68.2 °F 65% 29.97 in 10.0 mi South 21.9 mph 32.2 mph N/A   Overcast
1:55 PM 81.5 °F 84.2 °F 68.0 °F 63% 29.95 in 10.0 mi SSW 23.0 mph 28.8 mph N/A   Overcast
2:15 PM 80.6 °F 83.2 °F 68.0 °F 65% 29.94 in 10.0 mi SSW 20.7 mph 26.5 mph N/A   Overcast
2:35 PM 81.3 °F 84.0 °F 67.8 °F 63% 29.92 in 10.0 mi South 17.3 mph 29.9 mph N/A   Overcast
3:15 PM 81.0 °F 83.4 °F 67.3 °F 63% 29.91 in 10.0 mi SSW 19.6 mph 29.9 mph N/A   Overcast
3:55 PM 81.7 °F 84.5 °F 68.0 °F 63% 29.90 in 10.0 mi South 13.8 mph 23.0 mph N/A   Overcast
4:15 PM 80.2 °F 82.6 °F 67.3 °F 64% 29.89 in 10.0 mi South 21.9 mph 28.8 mph N/A   Overcast
5:15 PM 81.0 °F 83.4 °F 67.3 °F 63% 29.82 in 10.0 mi South 21.9 mph 36.8 mph N/A   Scattered Clouds
5:35 PM 78.8 °F - 67.5 °F 68% 29.85 in 10.0 mi South 18.4 mph 28.8 mph N/A   Mostly Cloudy
5:55 PM 78.3 °F - 68.2 °F 71% 29.84 in 10.0 mi SSW 13.8 mph 21.9 mph N/A   Overcast
6:15 PM 78.8 °F - 68.2 °F 70% 29.84 in 10.0 mi South 12.7 mph 23.0 mph N/A   Overcast
6:35 PM 78.8 °F - 68.2 °F 70% 29.84 in 10.0 mi SSW 16.1 mph 20.7 mph N/A   Mostly Cloudy
6:55 PM 78.3 °F - 68.2 °F 71% 29.84 in 10.0 mi South 16.1 mph 20.7 mph N/A   Mostly Cloudy
7:35 PM 78.8 °F - 69.1 °F 72% 29.84 in 10.0 mi South 19.6 mph - N/A   Overcast
7:55 PM 78.1 °F - 69.4 °F 75% 29.84 in 10.0 mi South 19.6 mph 27.6 mph N/A   Overcast
8:15 PM 77.9 °F - 69.8 °F 76% 29.85 in 10.0 mi SSW 18.4 mph 26.5 mph N/A Thunderstorm Overcast
8:35 PM 76.3 °F - 70.9 °F 83% 29.84 in 10.0 mi SSW 23.0 mph 31.1 mph N/A Rain , Thunderstorm Light Thunderstorms and Rain
9:15 PM 75.4 °F - 71.2 °F 87% 29.83 in 10.0 mi SSW 21.9 mph 29.9 mph N/A   Scattered Clouds
9:35 PM 75.4 °F - 71.6 °F 88% 29.83 in 10.0 mi SSW 24.2 mph 34.5 mph N/A   Clear
9:55 PM 75.2 °F - 71.6 °F 89% 29.82 in 10.0 mi SSW 20.7 mph 32.2 mph N/A   Clear
10:15 PM 75.4 °F - 71.6 °F 88% 29.84 in 10.0 mi SSW 20.7 mph 29.9 mph N/A   Scattered Clouds
10:35 PM 75.6 °F - 71.2 °F 86% 29.85 in 10.0 mi SSW 21.9 mph 29.9 mph N/A   Mostly Cloudy
10:55 PM 75.9 °F - 71.2 °F 85% 29.84 in 10.0 mi SSW 17.3 mph 25.3 mph N/A   Overcast
11:15 PM 75.9 °F - 71.1 °F 85% 29.84 in 10.0 mi SSW 20.7 mph 29.9 mph N/A   Overcast
11:35 PM 76.1 °F - 71.1 °F 84% 29.87 in 10.0 mi SSW 16.1 mph 28.8 mph N/A   Overcast